This is the latest recevied weather packets stored in our database for station/object DL9TPA-1. If no packets are shown the sender has not sent any weather packets the latest 10 day(s).
| Time | Temp. | Humidity | Pressure | Rain* | Wind** | Luminosity | Snow |
|---|---|---|---|---|---|---|---|
| 1777912792 | 22.22° C | 51% | 1011.3 hPa | 0 mm | - | - | - |
| 1777912188 | 22.22° C | 50% | 1011.2 hPa | 0 mm | - | - | - |
| 1777911587 | 22.78° C | 50% | 1011.2 hPa | 0 mm | - | - | - |
| 1777910987 | 22.78° C | 50% | 1011.3 hPa | 0 mm | - | - | - |
| 1777910381 | 22.78° C | 49% | 1011.3 hPa | 0 mm | - | - | - |
| 1777909781 | 23.33° C | 48% | 1011.3 hPa | 0 mm | - | - | - |
| 1777909178 | 23.89° C | 47% | 1011.4 hPa | 0 mm | - | - | - |
| 1777908576 | 24.44° C | 46% | 1011.4 hPa | 0 mm | - | - | - |
| 1777907973 | 25° C | 45% | 1011.5 hPa | 0 mm | - | - | - |
| 1777907371 | 26.11° C | 42% | 1011.4 hPa | 0 mm | - | - | - |
| 1777906772 | 26.67° C | 42% | 1011.5 hPa | 0 mm | - | - | - |
| 1777906168 | 27.22° C | 41% | 1011.6 hPa | 0 mm | - | - | - |
| 1777905565 | 27.78° C | 40% | 1011.6 hPa | 0 mm | - | - | - |
| 1777904964 | 28.33° C | 40% | 1011.8 hPa | 0 mm | - | - | - |
| 1777904363 | 28.33° C | 40% | 1011.8 hPa | 0 mm | - | - | - |
| 1777903760 | 29.44° C | 39% | 1011.9 hPa | 0 mm | - | - | - |
| 1777903158 | 28.89° C | 40% | 1011.9 hPa | 0 mm | - | - | - |
| 1777902557 | 28.33° C | 40% | 1012 hPa | 0 mm | - | - | - |
| 1777901956 | 28.33° C | 40% | 1012 hPa | 0 mm | - | - | - |
| 1777901356 | 28.89° C | 39% | 1012 hPa | 0 mm | - | - | - |
| 1777900750 | 28.89° C | 41% | 1012.1 hPa | 0 mm | - | - | - |
| 1777900147 | 28.33° C | 41% | 1012.1 hPa | 0 mm | - | - | - |
| 1777899546 | 28.89° C | 40% | 1012.2 hPa | 0 mm | - | - | - |
| 1777898943 | 29.44° C | 41% | 1012.2 hPa | 0 mm | - | - | - |
| 1777898342 | 28.33° C | 42% | 1012.3 hPa | 0 mm | - | - | - |
* Rain latest hour (hover to see other rain measurements)
** Current wind speed in m/s (hover to see current wind gust speed)